Location: El Hornillo
(40.2499°N, 5.1036°W)
Time: 10:31:34
(UTC+00:00)

CZ-4C R/B - Pass Details

Date: 05 August 2024
Orbit: 521 x 1470 km, 63.4° (Epoch: 18 September)

Event Time Altitude Azimuth Distance (km) Brightness Sun altitude
Rises 20:15:05 0° 321° (NW) 3,930 7.2 -8.6°
Reaches altitude 10° 20:17:38 10° 317° (NW) 3,092 6.6 -9.0°
Maximum altitude 20:25:02 54° 243° (WSW) 1,587 3.8 -10.2°
Drops below altitude 10° 20:33:37 10° 169° (S) 3,562 5.0 -11.6°
Enters shadow 20:36:12 - 166° (SSE) 4,383 5.4 -12.0°
